Regional Weather Roundup
Issued by NWS Jackson, KY

Home | Current Version | Previous Version | Text Only | Print | Product List | Glossary On
Versions: 1 2 3 4 5 6 7 8 9 10 11 12 13 14 15 16 17 18 19 20 21 22 23 24 25 26 27 28 29 30 31 32 33 34 35 36 37 38 39 40 41 42 43 44 45 46 47 48 49 50
000
ASUS43 KJKL 251110
RWRJKL

EAST KENTUCKY HOURLY WEATHER ROUNDUP
NATIONAL WEATHER SERVICE JACKSON KY
700 AM EDT MON MAY 25 2015

NOTE: "FAIR" INDICATES FEW OR NO CLOUDS BELOW 12,000 FEET WITH
NO SIGNIFICANT WEATHER AND/OR OBSTRUCTIONS TO VISIBILITY.

* THESE REPORTS ARE NOT UNDER NWS QUALITY CONTROL AND MAY NOT
  REPORT WEATHER SUCH AS PRECIPITATION AND FOG.

KYZ079-080-083-085-087-088-110-112-115-119-120-251200
...EASTERN KENTUCKY...

CITY           SKY/WX    TMP DP  RH WIND       PRES   REMARKS
JACKSON        PTCLDY    65  50  58 S5        30.20R
LONDON         PTCLDY    64  51  62 SE3       30.20R
SOMERSET*      CLOUDY    66  54  63 S3        30.20R
MONTICELLO*    PTCLDY    71  56  59 S9        30.20R
MIDDLESBORO*   CLEAR     57  55  94 CALM      30.25R
HARLAN APT*    MOSUNNY   64  50  59 CALM      30.25R
HAZARD APT*    SUNNY     63  52  67 E3        30.20
BLACK MTN*       N/A     55  50  82 S9          N/A
PIKEVILLE APT* CLEAR     66  50  55 S6        30.21
BIG SANDY*     MOSUNNY   67  52  57 S6        30.20R
MOREHEAD APT*  SUNNY     64  54  68 S5        30.19R
$$

KYZ035-036-041-042-044-050-067-078-099-251200
...CENTRAL KENTUCKY...

CITY           SKY/WX    TMP DP  RH WIND       PRES   REMARKS
MT STERLING*   CLOUDY    66  54  63 SW8       30.17R
FLEMING/MASON* CLEAR     66  54  63 S7        30.17R
DANVILLE*      CLOUDY    68  54  60 S7        30.16R
RICHMOND*      CLOUDY    68  52  56 S7        30.15S
LEXINGTON      CLOUDY    69  55  60 S10       30.14R
FRANKFORT      CLOUDY    68  56  65 S6        30.12R
$$

KYZ091>093-OHZ055-061-077-WVZ005-015-034-035-042-251200
...SOUTHERN OHIO/WEST VIRGINIA...

CITY           SKY/WX    TMP DP  RH WIND       PRES   REMARKS
COVINGTON      CLOUDY    68  57  68 S8        30.11R
COLUMBUS       CLOUDY    68  54  60 S5        30.12R
DAYTON         CLOUDY    71  56  58 S15       30.10R
WILMINGTON     CLOUDY    69  53  56 S13       30.13R
HUNTINGTON     CLEAR     60  54  80 CALM      30.17R
CHARLESTON     PTCLDY    57  54  89 CALM      30.20S
PINEVILLE*     CLEAR     52  52 100 MISG      30.32R
BECKLEY        CLEAR     60  49  66 SE6       30.29R
BLUEFIELD      CLEAR     62  49  62 E3        30.31R
$$

VAZ002-007-008-TNZ017-027-036-066-071-251200
...SOUTHWEST VIRGINIA/EAST TENNESSEE...

CITY           SKY/WX    TMP DP  RH WIND       PRES   REMARKS
WISE*          PTCLDY    61  50  67 S12       30.30R
JONESVILLE*    MOSUNNY   59  54  82 CALM      30.28R
ABINGDON*      CLEAR     56  52  84 CALM      30.30R
BRISTOL        PTCLDY    57  52  83 CALM      30.28R
KNOXVILLE      MOCLDY    61  56  83 CALM      30.22R
OAK RIDGE      CLEAR     64  55  72 VRB3      30.25R
CROSSVILLE     CLEAR     66  55  67 S9G18     30.23S
NASHVILLE      CLOUDY    72  59  63 S14       30.14R
$$

...KEY TO REMARKS...
VSB - VISIBILITY IN MILES
WCI - WIND CHILL INDEX
HX  - HEAT INDEX

$$


USA.gov is the U.S. government's official web portal to all federal, state and local government web resources and services.